Year,Month,Day,Hour,Minute,Value (Times are PST for temperature in C)
2011,09,18,08,20,12.90
2011,09,18,08,21,12.90
2011,09,18,08,22,13.00
2011,09,18,08,23,13.00
2011,09,18,08,24,13.00
2011,09,18,08,25,13.00
2011,09,18,08,26,13.00
2011,09,18,08,27,13.00
2011,09,18,08,28,13.00
2011,09,18,08,29,13.10
2011,09,18,08,30,13.10
2011,09,18,08,31,13.10
2011,09,18,08,32,13.20
2011,09,18,08,33,13.10
2011,09,18,08,34,13.10
2011,09,18,08,35,13.10
2011,09,18,08,36,13.20
2011,09,18,08,37,13.20
2011,09,18,08,38,13.20
2011,09,18,08,39,13.20
2011,09,18,08,40,13.20
2011,09,18,08,41,13.20
2011,09,18,08,42,13.20
2011,09,18,08,43,13.20
2011,09,18,08,44,13.20
2011,09,18,08,45,13.20
2011,09,18,08,46,13.20
2011,09,18,08,47,13.20
2011,09,18,08,48,13.20
2011,09,18,08,49,13.30
2011,09,18,08,50,13.30
2011,09,18,08,51,13.30
2011,09,18,08,52,13.30
2011,09,18,08,53,13.30
2011,09,18,08,54,13.40
2011,09,18,08,55,13.40
2011,09,18,08,56,13.40
2011,09,18,08,57,13.50
2011,09,18,08,58,13.50
2011,09,18,08,59,13.60
2011,09,18,09,00,13.60
2011,09,18,09,01,13.60
2011,09,18,09,02,13.60
2011,09,18,09,03,13.60
2011,09,18,09,04,13.60
2011,09,18,09,05,13.60
2011,09,18,09,06,13.60
2011,09,18,09,07,13.60
2011,09,18,09,08,13.60
2011,09,18,09,09,13.60
2011,09,18,09,10,13.60
2011,09,18,09,11,13.60
2011,09,18,09,12,13.60
2011,09,18,10,03,14.20
2011,09,18,10,04,14.20
2011,09,18,10,05,14.20
2011,09,18,10,06,14.20
2011,09,18,10,07,14.20
2011,09,18,10,08,14.20
2011,09,18,10,09,14.20
2011,09,18,10,10,14.20
2011,09,18,10,11,14.20
2011,09,18,10,12,14.20
2011,09,18,10,13,14.20
2011,09,18,10,14,14.30
2011,09,18,10,15,14.30
2011,09,18,10,16,14.40
2011,09,18,10,17,14.40
2011,09,18,10,18,14.40
2011,09,18,10,19,14.40
2011,09,18,10,20,14.40
2011,09,18,10,21,14.30
2011,09,18,10,22,14.30
2011,09,18,10,23,14.30
2011,09,18,10,24,14.30
2011,09,18,10,25,14.30
2011,09,18,10,26,14.30
2011,09,18,10,27,14.30
2011,09,18,10,28,14.30
2011,09,18,10,29,14.30
2011,09,18,10,30,14.30
2011,09,18,10,31,14.30
2011,09,18,10,32,14.30
2011,09,18,10,33,14.20
2011,09,18,10,34,14.20
2011,09,18,10,35,14.20
2011,09,18,10,36,14.20
2011,09,18,10,37,14.20
2011,09,18,10,38,14.20
2011,09,18,10,39,14.20
2011,09,18,10,40,14.20
2011,09,18,10,41,14.20
2011,09,18,10,42,14.20
2011,09,18,10,43,14.30
2011,09,18,10,44,14.30
2011,09,18,10,45,14.40
2011,09,18,10,46,14.40
2011,09,18,10,47,14.50
2011,09,18,10,48,14.50
2011,09,18,10,49,14.60
2011,09,18,10,50,14.60
2011,09,18,10,51,14.70
2011,09,18,10,52,14.70
2011,09,18,10,53,14.80
2011,09,18,10,54,14.90
2011,09,18,10,55,14.90
2011,09,18,10,56,15.00
2011,09,18,10,57,15.10
2011,09,18,10,58,15.20
2011,09,18,10,59,15.40
2011,09,18,11,00,15.60
2011,09,18,11,01,15.70
2011,09,18,11,02,15.80
2011,09,18,11,03,15.80
2011,09,18,11,04,15.80
2011,09,18,11,05,15.70
2011,09,18,11,06,15.60
2011,09,18,11,07,15.40
2011,09,18,11,08,15.40
2011,09,18,11,09,15.40
2011,09,18,11,10,15.40
2011,09,18,11,11,15.50
2011,09,18,11,12,15.50
2011,09,18,11,13,15.60
2011,09,18,11,14,15.60
2011,09,18,11,15,15.70
2011,09,18,11,16,15.80
2011,09,18,11,17,15.90
2011,09,18,11,18,16.00
2011,09,18,11,19,16.10
2011,09,18,11,20,16.10
2011,09,18,11,21,16.10
2011,09,18,11,22,16.10
2011,09,18,11,23,16.20
2011,09,18,11,24,16.20
2011,09,18,11,25,16.20
2011,09,18,11,26,16.20
2011,09,18,11,27,16.10
2011,09,18,11,28,16.10
2011,09,18,11,29,16.10
2011,09,18,11,30,16.00
2011,09,18,11,31,15.90
2011,09,18,11,32,15.80
2011,09,18,11,33,15.80
2011,09,18,11,34,15.80
2011,09,18,11,35,15.70
2011,09,18,11,36,15.70
2011,09,18,11,37,15.70
2011,09,18,11,38,15.60
2011,09,18,11,39,15.60
2011,09,18,11,40,15.60
2011,09,18,11,41,15.50
2011,09,18,11,42,15.50
2011,09,18,11,43,15.40
2011,09,18,11,44,15.40
2011,09,18,11,45,15.40
2011,09,18,11,46,15.50
2011,09,18,11,47,15.50
2011,09,18,11,48,15.50
2011,09,18,11,49,15.40
2011,09,18,11,50,15.40
2011,09,18,11,51,15.40
2011,09,18,11,52,15.40
2011,09,18,11,53,15.40
2011,09,18,11,54,15.40
2011,09,18,11,55,15.40
2011,09,18,11,56,15.40
2011,09,18,11,57,15.40
2011,09,18,11,58,15.40
2011,09,18,11,59,15.30
2011,09,18,12,00,15.30
2011,09,18,12,01,15.30
2011,09,18,12,02,15.30
2011,09,18,12,03,15.30
2011,09,18,12,04,15.30
2011,09,18,12,05,15.30
2011,09,18,12,06,15.40
2011,09,18,12,07,15.50
2011,09,18,12,08,15.50
2011,09,18,12,09,15.60
2011,09,18,12,10,15.70
2011,09,18,12,11,15.70
2011,09,18,12,12,15.80
2011,09,18,12,13,15.80
2011,09,18,12,14,15.90
2011,09,18,12,15,16.00
2011,09,18,12,16,16.10
2011,09,18,12,17,16.10
2011,09,18,12,18,16.20
2011,09,18,12,19,16.20
2011,09,18,12,20,16.20
2011,09,18,12,21,16.30
2011,09,18,12,22,16.30
2011,09,18,12,23,16.30
2011,09,18,12,24,16.30
2011,09,18,12,25,16.40
2011,09,18,12,26,16.40
2011,09,18,12,27,16.60
2011,09,18,12,28,16.70
2011,09,18,12,29,16.70
2011,09,18,12,30,16.70
2011,09,18,12,31,16.70
2011,09,18,12,32,16.70
2011,09,18,12,33,16.70
2011,09,18,12,34,16.70
2011,09,18,12,35,16.60
2011,09,18,12,36,16.50
2011,09,18,12,37,16.40
2011,09,18,12,38,16.40
2011,09,18,12,39,16.40
2011,09,18,12,40,16.40
2011,09,18,12,41,16.40
2011,09,18,12,42,16.30
2011,09,18,12,43,16.30
2011,09,18,12,44,16.40
2011,09,18,12,45,16.40
2011,09,18,12,46,16.40
2011,09,18,12,47,16.40
2011,09,18,12,48,16.40
2011,09,18,12,49,16.40
2011,09,18,12,50,16.30
2011,09,18,12,51,16.20
2011,09,18,12,52,16.20
2011,09,18,12,53,16.20
2011,09,18,12,54,16.20
2011,09,18,12,55,16.20
2011,09,18,12,56,16.20
2011,09,18,12,57,16.20
2011,09,18,12,58,16.40
2011,09,18,12,59,16.40
2011,09,18,13,00,16.40
2011,09,18,13,01,16.50
2011,09,18,13,02,16.60
2011,09,18,13,03,16.60
2011,09,18,13,04,16.70
2011,09,18,13,05,16.70
2011,09,18,13,06,16.70
2011,09,18,13,07,16.70
2011,09,18,13,08,16.70
2011,09,18,13,09,16.70
2011,09,18,13,10,16.70
2011,09,18,13,11,16.70
2011,09,18,13,12,16.70
2011,09,18,13,13,16.60
2011,09,18,13,14,16.50
2011,09,18,13,15,16.40
2011,09,18,13,16,16.40
2011,09,18,13,17,16.30
2011,09,18,13,18,16.30
2011,09,18,13,19,16.30
2011,09,18,13,20,16.20
2011,09,18,13,21,16.20
2011,09,18,13,22,16.20
2011,09,18,13,23,16.30
2011,09,18,13,24,16.30
2011,09,18,13,25,16.40
2011,09,18,13,26,16.40
2011,09,18,13,27,16.40
2011,09,18,13,28,16.50
2011,09,18,13,29,16.60
2011,09,18,13,30,16.70
2011,09,18,13,31,16.70
2011,09,18,13,32,16.70
2011,09,18,13,33,16.80
2011,09,18,13,34,16.80
2011,09,18,13,35,16.70
2011,09,18,13,36,16.70
2011,09,18,13,37,16.70
2011,09,18,13,38,16.70
2011,09,18,13,39,16.80
2011,09,18,13,40,16.90
2011,09,18,13,41,16.90
2011,09,18,13,42,17.00
2011,09,18,13,43,17.00
2011,09,18,13,44,17.00
2011,09,18,13,45,17.00
2011,09,18,13,46,16.90
2011,09,18,13,47,17.00
2011,09,18,13,48,17.00
2011,09,18,13,49,17.00
2011,09,18,13,50,16.90
2011,09,18,13,51,17.00
2011,09,18,13,52,17.00
2011,09,18,13,53,17.00
2011,09,18,13,54,17.00
2011,09,18,13,55,17.10
2011,09,18,13,56,17.10
2011,09,18,13,57,17.10
2011,09,18,13,58,17.10
2011,09,18,13,59,17.10
2011,09,18,14,00,17.10
2011,09,18,14,01,17.10
2011,09,18,14,02,17.20
2011,09,18,14,03,17.10
2011,09,18,14,04,17.10
2011,09,18,14,05,17.10
2011,09,18,14,06,17.00
2011,09,18,14,07,17.00
2011,09,18,14,08,17.00
2011,09,18,14,09,17.00
2011,09,18,14,10,17.10
2011,09,18,14,11,17.10
2011,09,18,14,12,17.10
2011,09,18,14,13,17.10
2011,09,18,14,14,17.20
2011,09,18,14,15,17.20
2011,09,18,14,16,17.20
2011,09,18,14,17,17.20
2011,09,18,14,18,17.10
2011,09,18,14,19,17.10
2011,09,18,14,20,17.10
2011,09,18,14,21,17.20
2011,09,18,14,22,17.20
2011,09,18,14,23,17.10
2011,09,18,14,24,17.10
2011,09,18,14,25,17.10
2011,09,18,14,26,17.00
2011,09,18,14,27,16.90
2011,09,18,14,28,16.90
2011,09,18,14,29,16.90
2011,09,18,14,30,17.00
2011,09,18,14,31,17.00
2011,09,18,14,32,17.00
2011,09,18,14,33,17.10
2011,09,18,14,34,17.10
2011,09,18,14,35,17.10
2011,09,18,14,36,17.10
2011,09,18,14,37,17.20
2011,09,18,14,38,17.20
2011,09,18,14,39,17.30
2011,09,18,14,40,17.30
2011,09,18,14,41,17.30
2011,09,18,14,42,17.30
2011,09,18,14,43,17.30
2011,09,18,14,44,17.30
2011,09,18,14,45,17.30
2011,09,18,14,46,17.30
2011,09,18,14,47,17.30
2011,09,18,14,48,17.30
2011,09,18,14,49,17.30
2011,09,18,14,50,17.30
2011,09,18,14,51,17.30
2011,09,18,14,52,17.30
2011,09,18,14,53,17.30
2011,09,18,14,54,17.20
2011,09,18,14,55,17.20
2011,09,18,14,56,17.20
2011,09,18,14,57,17.20
2011,09,18,14,58,17.20
2011,09,18,14,59,17.20
2011,09,18,15,00,17.20
2011,09,18,15,01,17.20
2011,09,18,15,02,17.30
2011,09,18,15,03,17.40
2011,09,18,15,04,17.40
2011,09,18,15,05,17.50
2011,09,18,15,06,17.50
2011,09,18,15,07,17.50
2011,09,18,15,08,17.60
2011,09,18,15,09,17.50
2011,09,18,15,10,17.50
2011,09,18,15,11,17.50
2011,09,18,15,12,17.40
2011,09,18,15,13,17.40
2011,09,18,15,14,17.40
2011,09,18,15,15,17.50
2011,09,18,15,16,17.50
2011,09,18,15,17,17.50
2011,09,18,15,18,17.60
2011,09,18,15,19,17.60
2011,09,18,15,20,17.50
2011,09,18,15,21,17.40
2011,09,18,15,22,17.40
2011,09,18,15,23,17.40
2011,09,18,15,24,17.40
2011,09,18,15,25,17.30
2011,09,18,15,26,17.30
2011,09,18,15,27,17.30
2011,09,18,15,28,17.30
2011,09,18,15,29,17.20
2011,09,18,15,30,17.00
2011,09,18,15,31,16.90
2011,09,18,15,32,16.80
2011,09,18,15,33,16.60
2011,09,18,15,34,16.50
2011,09,18,15,35,16.40
2011,09,18,15,36,16.40
2011,09,18,15,37,16.40
2011,09,18,15,38,16.40
2011,09,18,15,39,16.40
2011,09,18,15,40,16.30
2011,09,18,15,41,16.20
2011,09,18,15,42,16.10
2011,09,18,15,43,16.10
2011,09,18,15,44,16.10
2011,09,18,15,45,16.10
2011,09,18,15,46,16.10
2011,09,18,15,47,16.10
2011,09,18,15,48,16.10
2011,09,18,15,49,16.10
2011,09,18,15,50,16.10
2011,09,18,15,51,16.10
2011,09,18,15,52,16.10
2011,09,18,15,53,16.10
2011,09,18,15,54,16.10
2011,09,18,15,55,16.10
2011,09,18,15,56,16.10
2011,09,18,15,57,16.10
2011,09,18,15,58,16.10
2011,09,18,15,59,16.10
2011,09,18,16,00,16.20
2011,09,18,16,01,16.20
2011,09,18,16,02,16.20
2011,09,18,16,03,16.30
2011,09,18,16,04,16.30
2011,09,18,16,05,16.40
2011,09,18,16,06,16.40
2011,09,18,16,07,16.40
2011,09,18,16,08,16.40
2011,09,18,16,09,16.40
2011,09,18,16,10,16.40
2011,09,18,16,11,16.30
2011,09,18,16,12,16.30
2011,09,18,16,13,16.40
2011,09,18,16,14,16.40
2011,09,18,16,15,16.40
2011,09,18,16,16,16.40
2011,09,18,16,17,16.40
2011,09,18,16,18,16.40
2011,09,18,16,19,16.40
2011,09,18,16,20,16.30
2011,09,18,16,21,16.30
2011,09,18,16,22,16.30
2011,09,18,16,23,16.20
2011,09,18,16,24,16.20
2011,09,18,16,25,16.20
2011,09,18,16,26,16.20
2011,09,18,16,27,16.20
2011,09,18,16,28,16.20
2011,09,18,16,29,16.20
2011,09,18,16,30,16.20
2011,09,18,16,31,16.10
2011,09,18,16,32,16.10
2011,09,18,16,33,16.00
2011,09,18,16,34,15.90
2011,09,18,16,35,15.90
2011,09,18,16,36,15.80
2011,09,18,16,37,15.80
2011,09,18,16,38,15.80
2011,09,18,16,39,15.80
2011,09,18,16,40,15.80
2011,09,18,16,41,15.80
2011,09,18,16,42,15.80
2011,09,18,16,43,15.80
2011,09,18,16,44,15.80
2011,09,18,16,45,15.80
2011,09,18,16,46,15.80
